This is the latest recevied weather packets stored in our database for station/object W8AN. If no packets are shown the sender has not sent any weather packets the latest 1 day(s).
| Time | Temp. | Humidity | Pressure | Rain* | Wind** | Luminosity | Snow |
|---|---|---|---|---|---|---|---|
| 1778037755 | 8.89° C | 86% | 4263.9 hPa | 0 mm | 0 m/s | 0 W/m² | - |
| 1778037446 | 8.89° C | 86% | 4264.1 hPa | 0 mm | 0 m/s | 0 W/m² | - |
| 1778037144 | 8.89° C | 86% | 4264.2 hPa | 1.27 mm | 0 m/s | 0 W/m² | - |
| 1778036842 | 8.89° C | 86% | 4264.2 hPa | 1.27 mm | 0 m/s | 0 W/m² | - |
| 1778036539 | 8.89° C | 86% | 4264.1 hPa | 0 mm | 0 m/s | 0 W/m² | - |
| 1778036236 | 8.89° C | 86% | 4264.3 hPa | 0 mm | 0 m/s | 0 W/m² | - |
| 1778035932 | 8.89° C | 86% | 4264.2 hPa | 1.78 mm | 0 m/s | 0 W/m² | - |
| 1778035629 | 8.89° C | 86% | 4264.1 hPa | 1.78 mm | 0 m/s | 0 W/m² | - |
| 1778035325 | 8.89° C | 86% | 4264.4 hPa | 0 mm | 0 m/s | 0 W/m² | - |
| 1778035022 | 8.89° C | 86% | 4264.1 hPa | 1.27 mm | 0 m/s | 0 W/m² | - |
| 1778034719 | 8.89° C | 86% | 4264.2 hPa | 1.27 mm | 0 m/s | 0 W/m² | - |
| 1778034416 | 8.89° C | 86% | 4264 hPa | 0 mm | 0 m/s | 0 W/m² | - |
| 1778034114 | 8.89° C | 85% | 4264 hPa | 1.78 mm | 0 m/s | 0 W/m² | - |
| 1778033812 | 8.89° C | 85% | 4264.1 hPa | 1.78 mm | 0 m/s | 0 W/m² | - |
| 1778033509 | 8.89° C | 85% | 4264.1 hPa | 0 mm | 0 m/s | 0 W/m² | - |
| 1778033206 | 8.89° C | 85% | 4264.3 hPa | 1.27 mm | 0 m/s | 0 W/m² | - |
| 1778032903 | 8.89° C | 85% | 4264.1 hPa | 3.05 mm | 0 m/s | 0 W/m² | - |
| 1778032600 | 8.89° C | 85% | 4264.2 hPa | 1.78 mm | 0 m/s | 0 W/m² | - |
| 1778032297 | 8.89° C | 85% | 4264.1 hPa | 1.27 mm | 0 m/s | 0 W/m² | - |
| 1778031995 | 8.89° C | 85% | 4263.7 hPa | 1.27 mm | 0 m/s | 0 W/m² | - |
| 1778031690 | 8.89° C | 85% | 4264.1 hPa | 1.78 mm | 0 m/s | 0 W/m² | - |
| 1778031389 | 8.89° C | 85% | 4263.9 hPa | 3.56 mm | 0 m/s | 0 W/m² | - |
| 1778031085 | 8.89° C | 85% | 4263.9 hPa | 1.78 mm | 0 m/s | 0 W/m² | - |
| 1778030782 | 8.89° C | 85% | 4263.6 hPa | 3.05 mm | 0 m/s | 0 W/m² | - |
| 1778030478 | 8.89° C | 85% | 4263.5 hPa | 3.05 mm | 0 m/s | 0 W/m² | - |
* Rain latest hour (hover to see other rain measurements)
** Current wind speed in m/s (hover to see current wind gust speed)